[[{"header":{"parameterUnit":"m.s-1","parameterCategory":1,"la1":30.2991,"la2":30.254,"lo1":-89.0895,"lo2":-89.0444,"dy":0.0017,"dx":0.0017,"nx":28,"ny":28,"refTime":"2024-06-14T21:00:00:Z","depth":0,"parameterNumber":2,"parameterNumberName":"U-component_of_WINDS"},"data":[0,0,0,0,0,0,0,0,0,0,0,0,0,0,0,0,0,0,0,0,0,0,0,0,0,0,0,0,0,0,0,0,0,0,0,0,0,0,0,0,0,0,0,0,0,0,0,0,0,0,0,0,0,0,0,0,0,0,-2.7501,-2.7503,0,-2.763,-2.7631,-2.7633,-2.7737,-2.7738,-2.7739,-2.774,-2.7868,-2.787,-2.7872,0,0,0,0,0,0,0,0,0,0,0,0,0,-2.7345,-2.7347,-2.7501,-2.7503,-2.7505,-2.7629,-2.7631,-2.7633,-2.7737,-2.7738,-2.7739,-2.7741,-2.7867,-2.787,-2.7873,0,0,0,0,0,0,0,0,0,0,0,0,0,-2.7436,-2.7348,-2.7501,-2.7572,-2.7579,-2.7629,-2.7631,-2.7633,-2.7737,-2.7738,-2.774,-2.7741,-2.7866,-2.787,-2.7873,-2.7862,0,0,-2.7884,-2.7886,0,0,0,0,0,0,0,0,-2.7431,-2.7442,-2.756,-2.7567,-2.7575,-2.7669,-2.7623,-2.771,-2.7736,-2.7677,-2.774,-2.7742,-2.78,-2.7809,-2.783,-2.7868,-2.7874,-2.7884,-2.7886,-2.7888,-2.7889,0,0,0,0,0,0,0,-2.7425,-2.7437,-2.7552,-2.7561,-2.7571,-2.7596,-2.7611,-2.764,-2.7727,-2.7682,-2.769,-2.7704,-2.7805,-2.7826,-2.7833,-2.7876,-2.7884,-2.7887,-2.789,-2.7891,-2.7912,-2.7911,0,0,0,0,0,0,-2.7408,-2.7431,-2.7548,-2.7556,-2.7506,-2.7598,-2.7614,-2.7637,-2.7727,-2.7743,-2.7702,-2.7708,-2.7819,-2.7829,-2.7838,-2.7831,-2.7888,-2.7891,-2.7893,-2.7914,-2.7912,-2.791,0,0,0,0,0,0,-2.7404,-2.7417,-2.7543,-2.7496,-2.7514,-2.7599,-2.7624,-2.7639,-2.766,-2.7743,-2.7759,-2.7708,-2.7821,-2.7833,-2.7856,-2.7837,-2.7893,-2.7896,-2.7916,-2.7913,-2.7911,-2.7816,0,0,0,0,0,0,-2.7399,-2.7415,-2.7412,-2.7495,-2.7516,-2.7558,-2.7623,-2.764,-2.7666,-2.7675,-2.7752,-2.7767,-2.7823,-2.785,-2.7859,-2.7843,-2.7899,-2.7918,-2.7915,-2.7912,-2.7821,-2.7811,-2.7802,0,0,0,0,0,-2.7393,-2.738,-2.7411,-2.7425,-2.7514,-2.7557,-2.7569,-2.7635,-2.7665,-2.7662,-2.7715,-2.7764,-2.7838,-2.7851,-2.7863,-2.7847,-2.7919,-2.7915,-2.7912,-2.7826,-2.7813,-2.7802,0,0,0,0,0,0,-2.7291,-2.7392,-2.7428,-2.7441,-2.749,-2.7575,-2.7573,-2.7619,-2.766,-2.7666,-2.7746,-2.7762,-2.7776,-2.7815,-2.7827,-2.7842,-2.7885,-2.7883,-2.7815,-2.7804,-2.7794,-2.7784,-2.7902,0,0,0,0,0,-2.727,-2.7297,-2.7384,-2.7387,-2.741,-2.7487,-2.7508,-2.7556,-2.7609,-2.7629,-2.7685,-2.7733,-2.7768,-2.7789,-2.7825,-2.7829,-2.7846,-2.7824,-2.7814,-2.7805,-2.7802,-2.7807,-2.7797,-2.7899,-2.7899,-2.7899,0,0,-2.7226,-2.7285,-2.7297,-2.7368,-2.7411,-2.7437,-2.7504,-2.7528,-2.7548,-2.7633,-2.7657,-2.77,-2.776,-2.7773,-2.7781,-2.7805,-2.7779,-2.7801,-2.7794,-2.7795,-2.7802,-2.7792,-2.7784,-2.7896,-2.7897,-2.7897,0,0,-2.716,-2.7208,-2.7216,-2.7258,-2.7324,-2.7376,-2.7377,-2.7456,-2.7488,-2.7514,-2.7579,-2.7603,-2.7661,-2.7701,-2.7729,-2.768,-2.7726,-2.769,-2.7638,-2.7641,-2.7633,-2.7627,-2.7608,-2.76,-2.7687,-2.7687,-2.7687,0,-2.7097,-2.714,-2.7213,-2.7234,-2.7263,-2.7344,-2.7352,-2.7389,-2.7462,-2.748,-2.7507,-2.7581,-2.7628,-2.7651,-2.7639,-2.766,-2.7663,-2.768,-2.7629,-2.7623,-2.7618,-2.76,-2.7593,-2.7682,-2.7683,-2.7683,-2.7684,0,-2.7059,-2.7087,-2.7085,-2.7155,-2.7185,-2.7199,-2.7274,-2.7295,-2.734,-2.7389,-2.7415,-2.7474,-2.7523,-2.7533,-2.7577,-2.7563,-2.7575,-2.7614,-2.7659,-2.7602,-2.7587,-2.7581,-2.7675,-2.7677,-2.7678,-2.7679,0,0,-2.6928,-2.7041,-2.7039,-2.7072,-2.7151,-2.7174,-2.7192,-2.7242,-2.7257,-2.7306,-2.7322,-2.7371,-2.7408,-2.7439,-2.7489,-2.7492,-2.7448,-2.7531,-2.7534,-2.7512,-2.7435,-2.7403,-2.7394,-2.7481,-2.748,-2.7479,-2.7429,0,-2.6873,-2.691,-2.6978,-2.6993,-2.702,-2.7098,-2.7114,-2.7164,-2.7211,-2.724,-2.7292,-2.7324,-2.7371,-2.7391,-2.7398,-2.7452,-2.7433,-2.7457,-2.7495,-2.7495,-2.7474,-2.7387,-2.7353,-2.7303,-2.7424,-2.7423,-2.7423,0,-2.6813,-2.6858,-2.6875,-2.6954,-2.6968,-2.698,-2.7032,-2.7059,-2.7118,-2.7152,-2.7188,-2.7243,-2.7266,-2.7309,-2.7341,-2.7355,-2.7375,-2.7404,-2.7404,-2.7408,-2.7453,-2.7386,-2.7289,-2.728,-2.7414,-2.7415,-2.7416,0,-2.6713,-2.6779,-2.6798,-2.6824,-2.6916,-2.6923,-2.6962,-2.7022,-2.7048,-2.7093,-2.7111,-2.7158,-2.7182,-2.7217,-2.7283,-2.7309,-2.7307,-2.7356,-2.7335,-2.7333,-2.7328,-2.7327,-2.723,-2.7345,-2.7345,-2.7346,-2.7346,0,-2.6643,-2.665,-2.6755,-2.6766,-2.6777,-2.6855,-2.6864,-2.691,-2.6963,-2.6984,-2.7056,-2.7074,-2.7161,-2.719,-2.7242,-2.726,-2.7271,-2.7298,-2.7311,-2.729,-2.7286,-2.7302,-2.7306,-2.7344,-2.7344,-2.7344,-2.7345,0,-2.6532,-2.6603,-2.6628,-2.6714,-2.6736,-2.674,-2.6813,-2.6827,-2.688,-2.6906,-2.6916,-2.6998,-2.7035,-2.7106,-2.7162,-2.7198,-2.7203,-2.7228,-2.7183,-2.7191,-2.7165,-2.7165,-2.7073,-2.7064,-2.7186,-2.7185,-2.7184,0,-2.6481,-2.6488,-2.6576,-2.6596,-2.6632,-2.6663,-2.669,-2.6769,-2.6794,-2.6862,-2.6868,-2.6911,-2.6949,-2.7005,-2.7069,-2.7113,-2.7138,-2.7103,-2.7145,-2.7123,-2.7135,-2.7132,-2.7133,-2.7092,-2.709,-2.7089,-2.7087,0,-2.6382,-2.6417,-2.6454,-2.6503,-2.6534,-2.6577,-2.6623,-2.6635,-2.6724,-2.6749,-2.6788,-2.6818,-2.6878,-2.6919,-2.6973,-2.7012,-2.7063,-2.7075,-2.7071,-2.7048,-2.7021,-2.7033,-2.7154,-2.7075,-2.7076,-2.7077,-2.7078,-2.7079,-2.6298,-2.6308,-2.6372,-2.6411,-2.6454,-2.6496,-2.6513,-2.6569,-2.6603,-2.6658,-2.6703,-2.6738,-2.6798,-2.6875,-2.6912,-2.6941,-2.6965,-2.6961,-2.696,-2.6957,-2.6947,-2.7019,-2.6951,-2.6952,-2.6952,-2.6952,-2.6953,0,-2.6201,-2.6246,-2.6281,-2.6344,-2.6375,-2.6424,-2.6478,-2.65,-2.6531,-2.6582,-2.662,-2.6665,-2.6706,-2.6774,-2.6821,-2.6831,-2.6856,-2.684,-2.6839,-2.6847,-2.6924,-2.6921,-2.6819,-2.6819,-2.6819,-2.6819,-2.6819,-2.6819,-2.6154,-2.6174,-2.6216,-2.6259,-2.6304,-2.634,-2.6367,-2.6406,-2.6447,-2.6495,-2.653,-2.6575,-2.6634,-2.6686,-2.6725,-2.6745,-2.6757,-2.6734,-2.6759,-2.6829,-2.6841,-2.6853,-2.6851,-2.6736,-2.6736,-2.668,-2.668,-2.6679]},{"header":{"parameterUnit":"m.s-1","parameterCategory":1,"la1":30.2991,"la2":30.254,"lo1":-89.0895,"lo2":-89.0444,"dy":0.0017,"dx":0.0017,"nx":28,"ny":28,"refTime":"2024-06-14T21:00:00:Z","depth":0,"parameterNumber":3,"parameterNumberName":"V-component_of_WINDS"},"data":[0,0,0,0,0,0,0,0,0,0,0,0,0,0,0,0,0,0,0,0,0,0,0,0,0,0,0,0,0,0,0,0,0,0,0,0,0,0,0,0,0,0,0,0,0,0,0,0,0,0,0,0,0,0,0,0,0,0,7.1648,7.1647,0,7.1625,7.1625,7.1625,7.1523,7.1521,7.1518,7.1516,7.1494,7.1496,7.1498,0,0,0,0,0,0,0,0,0,0,0,0,0,7.1604,7.1606,7.1648,7.1647,7.1647,7.1625,7.1625,7.1625,7.1523,7.152,7.1518,7.1515,7.1494,7.1496,7.1498,0,0,0,0,0,0,0,0,0,0,0,0,0,7.1607,7.1606,7.1648,7.1594,7.1589,7.1625,7.1625,7.1625,7.1524,7.152,7.1517,7.1513,7.1493,7.1496,7.1498,7.1585,0,0,7.1506,7.1507,0,0,0,0,0,0,0,0,7.1607,7.1609,7.1602,7.1598,7.1592,7.1573,7.1602,7.1611,7.1525,7.1549,7.1516,7.1512,7.1524,7.1523,7.1527,7.1584,7.1583,7.1506,7.1507,7.1509,7.1509,0,0,0,0,0,0,0,7.1607,7.1609,7.1639,7.1602,7.1596,7.1571,7.1568,7.1603,7.1557,7.1546,7.1539,7.1538,7.152,7.1525,7.1526,7.1583,7.1506,7.1508,7.151,7.1511,7.171,7.1714,0,0,0,0,0,0,7.1614,7.161,7.1639,7.1638,7.1591,7.1575,7.1571,7.1583,7.1556,7.1548,7.1541,7.1533,7.1522,7.1523,7.1525,7.1624,7.1508,7.1511,7.1512,7.1707,7.1711,7.1715,0,0,0,0,0,0,7.1614,7.1618,7.164,7.1622,7.1623,7.158,7.1594,7.1584,7.1589,7.1552,7.1543,7.1554,7.152,7.1521,7.1571,7.1622,7.1512,7.1514,7.1702,7.1708,7.1713,7.1824,0,0,0,0,0,0,7.1613,7.1618,7.165,7.1623,7.1624,7.1687,7.1597,7.1586,7.1593,7.1583,7.1562,7.1555,7.1517,7.1568,7.1573,7.1623,7.1516,7.1697,7.1705,7.1711,7.1816,7.1833,7.1848,0,0,0,0,0,7.1612,7.1683,7.1652,7.1656,7.1663,7.169,7.169,7.1645,7.1598,7.163,7.1606,7.1555,7.1616,7.1574,7.1579,7.1631,7.1694,7.1703,7.1711,7.1809,7.183,7.1848,0,0,0,0,0,0,7.1717,7.1678,7.1644,7.1708,7.1703,7.1672,7.1711,7.1669,7.1677,7.1667,7.1611,7.1607,7.1665,7.1653,7.1606,7.1714,7.1646,7.1656,7.1719,7.1739,7.1754,7.1755,7.1518,0,0,0,0,0,7.1748,7.1772,7.1737,7.1797,7.1796,7.1755,7.1765,7.173,7.1723,7.172,7.1699,7.1695,7.1712,7.1725,7.1739,7.1815,7.1808,7.1853,7.1869,7.1882,7.1891,7.193,7.1949,7.1744,7.1743,7.1743,0,0,7.1811,7.1793,7.1812,7.1818,7.181,7.1836,7.1753,7.1785,7.1804,7.1725,7.1769,7.1755,7.1746,7.1809,7.1835,7.1801,7.1947,7.1893,7.1904,7.1906,7.1941,7.196,7.1978,7.1749,7.1748,7.1747,0,0,7.1941,7.193,7.1978,7.1972,7.1961,7.1933,7.1945,7.1921,7.1908,7.1952,7.1893,7.1916,7.1948,7.1943,7.1946,7.2075,7.2029,7.2082,7.2165,7.2203,7.2219,7.2233,7.2279,7.2296,7.2091,7.2091,7.2092,0,7.2021,7.2058,7.2009,7.2044,7.2049,7.1978,7.2028,7.2024,7.2019,7.2023,7.1985,7.2023,7.2012,7.2073,7.2105,7.2109,7.2121,7.2083,7.2221,7.2235,7.2247,7.229,7.2307,7.2098,7.2097,7.2096,7.2096,0,7.2158,7.2185,7.2225,7.2221,7.223,7.2273,7.2231,7.2246,7.2212,7.2189,7.2235,7.222,7.2229,7.2242,7.2209,7.2298,7.2277,7.2231,7.2161,7.2274,7.2313,7.2329,7.2107,7.2105,7.2103,7.2101,0,0,7.2351,7.2319,7.2335,7.2332,7.2315,7.2335,7.2375,7.2385,7.2399,7.2398,7.243,7.2459,7.2416,7.2419,7.2385,7.2419,7.2522,7.2368,7.2367,7.2397,7.2619,7.2653,7.2672,7.2492,7.2495,7.2497,7.2619,0,7.2473,7.2538,7.2495,7.2567,7.2591,7.2526,7.256,7.2554,7.2534,7.2552,7.253,7.2551,7.2494,7.2495,7.2525,7.2503,7.2566,7.2494,7.2521,7.2522,7.2523,7.2693,7.2729,7.2844,7.2635,7.2637,7.2639,0,7.2624,7.2629,7.2704,7.2682,7.269,7.2722,7.2727,7.2746,7.2738,7.2721,7.2725,7.2682,7.272,7.2654,7.2705,7.2657,7.2666,7.2657,7.2661,7.266,7.2586,7.2696,7.288,7.2898,7.2663,7.2661,7.2659,0,7.2756,7.2782,7.283,7.283,7.2806,7.283,7.2821,7.281,7.2818,7.2823,7.2828,7.2839,7.2844,7.2853,7.2815,7.277,7.2872,7.2802,7.2858,7.286,7.2881,7.288,7.3069,7.289,7.289,7.2889,7.2889,0,7.2896,7.2944,7.2889,7.2918,7.297,7.2921,7.2974,7.2959,7.2949,7.2975,7.292,7.2945,7.2894,7.2914,7.2885,7.2932,7.2935,7.2922,7.2914,7.2926,7.2928,7.293,7.2921,7.2894,7.2893,7.2892,7.2891,0,7.3052,7.3017,7.3064,7.3038,7.3033,7.3072,7.305,7.3076,7.3053,7.3086,7.3091,7.3054,7.3075,7.3039,7.3056,7.3036,7.3101,7.3081,7.3104,7.3097,7.3155,7.315,7.3351,7.3374,7.3182,7.3184,7.3185,0,7.3143,7.3178,7.3156,7.3169,7.3163,7.3185,7.3193,7.3148,7.3159,7.3153,7.318,7.3197,7.3207,7.3244,7.3219,7.3232,7.3211,7.328,7.3212,7.3224,7.3211,7.3208,7.3212,7.3294,7.3296,7.3298,7.33,0,7.3308,7.3289,7.3303,7.3312,7.3323,7.3328,7.3328,7.3342,7.3294,7.331,7.333,7.3338,7.3356,7.3373,7.3379,7.3371,7.3328,7.3322,7.3335,7.3348,7.3359,7.3353,7.314,7.3317,7.3315,7.3314,7.3313,7.3312,7.3433,7.3461,7.345,7.3468,7.3464,7.3466,7.3489,7.3468,7.3485,7.3494,7.3467,7.3494,7.3486,7.3491,7.3488,7.3509,7.3478,7.3498,7.3502,7.3508,7.3516,7.3357,7.351,7.3509,7.3509,7.3508,7.3508,0,7.3595,7.3584,7.3601,7.3603,7.3618,7.3576,7.3575,7.3589,7.3614,7.361,7.3621,7.3645,7.3662,7.3639,7.3652,7.3673,7.3654,7.3678,7.3675,7.3674,7.3544,7.353,7.3693,7.3693,7.3693,7.3693,7.3693,7.3693,7.368,7.3725,7.3705,7.3748,7.3738,7.3764,7.3766,7.3768,7.3765,7.3794,7.3807,7.3792,7.3781,7.3792,7.3806,7.3799,7.3806,7.3837,7.3823,7.3701,7.3683,7.3666,7.3653,7.3839,7.3839,7.3951,7.3952,7.3953]}]]